Location: Berville
(49.1893°N, 2.0748°E)
Time: 05:28:27
(UTC+00:00)

Cosmos 1844 Rocket - Pass Details

Date: 08 February 2023
Orbit: 826 x 843 km, 71.0° (Epoch: 21 March)

Event Time Altitude Azimuth Distance (km) Brightness Sun altitude
Rises 17:57:00 0° 327° (NNW) 3,375 6.1 -9.8°
Reaches altitude 10° 17:59:32 10° 321° (NW) 2,437 5.5 -10.2°
Maximum altitude 18:04:46 43° 251° (WSW) 1,146 4.0 -11.0°
Drops below altitude 10° 18:09:58 10° 181° (S) 2,423 5.2 -11.9°
Sets 18:12:30 0° 175° (S) 3,354 5.9 -12.3°
